SCP
0 0 0 0 0 0 0 0 0 0 0 0 0 0 0 0 0 0 0 0 0 0 0 0 0 0 0 0 0 0 0 0 0 0 0 0 0 0 0 0 0 0 0 0
0 0 0 0 0 0 0 0 0 0 0 0 0 0 0 0 0 0 0 0 0 0 0 0 0 0 0 0 0 0 0 0 0 0 0 0 0 0 0 0 0 0 0 0
0 0 0 0 0 0 0 0 0 0 0 0 0 0 0 0 0 0 0 0 0 0 0 0 0 0 0 0 0 0 0 0 0 0 0 0 0 0 0 0 0 0 0 0
0 0 0 0 0 0 0 0 0 0 0 0 0 0 0 0 0 0 0 0 0 0 0 0 0 0 0 0 0 0 0 0 0 0 0 0 0 0 0 0 0 0 0 0
0 0 0 0 0 0 0 0 0 0 0 0 0 0 0 0 0 0 0 0 0 0 0 0 0 0 0 0 0 0 0 0 0 0 0 0 0 0 1 0 0 0 0 0
0 0 0 0 0 0 0 0 0 0 0 0 0 0 0 0 0 0 0 0 0 0 0 0 0 0 0 0 0 0 0 0 0 0 0 0 0 0 1 1 1 0 0 0
0 0 0 0 0 0 0 0 0 0 0 0 0 0 0 0 0 0 0 0 0 0 0 0 0 0 0 0 0 0 0 0 0 0 0 0 0 0 1 1 1 0 0 0
0 0 0 0 0 0 0 0 0 0 0 0 0 0 0 0 0 0 0 0 0 0 0 0 0 0 0 0 0 0 0 0 0 0 0 0 0 0 1 1 1 0 0 0
0 0 0 0 0 0 0 0 0 0 0 0 0 0 0 0 0 0 0 0 0 0 0 0 0 0 0 0 0 0 0 0 0 0 0 0 0 0 0 1 1 0 0 0
0 0 0 0 0 0 0 0 0 0 0 0 0 0 0 0 0 0 0 0 0 0 0 0 0 0 0 0 0 0 0 0 0 0 0 0 0 0 0 0 0 0 0 0
0 0 0 0 0 0 0 0 0 0 0 0 0 0 0 0 0 0 0 0 0 0 0 0 0 0 0 0 0 0 0 0 0 0 0 0 0 0 0 0 0 0 0 0
0 0 0 0 0 0 0 0 0 0 0 0 0 0 0 0 0 0 0 0 0 0 0 0 0 0 0 0 0 0 0 0 0 0 0 0 0 0 0 0 0 0 0 0
0 0 0 0 0 0 0 0 0 0 0 0 0 0 0 0 0 0 0 0 0 0 0 0 0 0 0 0 0 0 0 0 0 0 0 0 0 0 0 0 0 0 0 0
0 0 0 0 0 0 0 0 0 0 0 0 0 0 0 0 0 0 0 0 0 0 0 0 0 0 0 0 0 0 0 0 0 0 0 0 0 0 0 0 0 0 0 0
0 0 0 0 0 0 0 0 -0 0 0 0 0 0 0 0 0 0 0 0 0 0 0 0 0 0 0 0 0 0 0 0 0 0 0 0 0 0 0 0 0 0 0 0
0 0 0 0 0 0 0 0 0 0 0 0 0 0 0 0 0 0 0 0 0 0 0 0 0 0 0 0 0 0 0 0 0 0 0 0 0 0 0 0 0 0 0 0
0 0 0 0 0 -0 -0 -0 0 0 0 0 0 0 0 0 0 0 0 0 0 0 0 0 0 0 0 0 0 0 0 0 0 0 0 0 0 0 0 0 0 0 0 0
0 0 0 0 0 0 0 0 0 0 0 0 0 0 0 0 0 0 0 0 0 0 0 0 0 0 0 0 0 0 0 0 0 0 0 0 0 0 0 0 0 0 0 0
0 0 0 0 0 0 0 0 0 0 0 0 0 0 0 0 0 0 0 0 0 0 0 0 0 0 0 0 0 0 0 0 0 0 0 0 0 0 0 0 0 0 0 0
0 0 0 0 0 0 0 0 0 0 0 0 0 0 0 0 0 0 0 0 0 0 0 0 0 0 0 0 0 0 0 0 0 0 0 0 0 0 0 0 0 0 0 0
0 0 0 0 0 0 0 0 0 0 0 0 0 0 0 0 0 0 0 0 0 0 0 0 0 0 0 0 0 0 0 0 0 0 0 0 0 0 0 0 0 0 0 0
0 0 0 0 0 0 0 0 0 0 0 0 0 0 0 0 0 0 0 0 0 0 0 0 0 0 0 0 0 0 0 0 0 0 0 0 0 0 0 0 0 0 0 0
0 0 0 0 0 0 0 0 0 0 0 0 0 0 0 0 0 0 0 0 0 0 0 0 0 0 0 0 0 0 0 0 0 0 0 0 0 0 0 0 0 0 0 0
0 0 0 0 -0 -0 0 0 0 0 0 0 0 0 0 0 0 0 0 0 0 0 0 0 0 0 0 0 0 0 0 0 0 0 0 0 0 0 0 0 0 0 0 0
0 0 0 0 0 0 0 0 0 0 0 0 0 0 0 0 0 0 0 0 0 0 0 0 0 0 0 0 0 0 0 0 0 0 0 0 0 0 0 0 0 0 0 0
0 0 0 -0 0 0 0 0 0 0 0 0 0 0 0 0 0 0 0 0 0 0 0 0 0 0 0 0 0 0 0 0 0 0 0 0 0 0 0 0 0 0 0 0
0 0 0 -0 0 0 0 0 0 0 0 0 0 0 0 0 0 0 0 0 0 0 0 0 0 0 0 0 0 0 0 0 0 0 0 0 0 0 0 0 0 0 0 0
Wind_Speed
5 4 5 7 9 11 13 12 11 10 11 12 8 7 7 6 6 5 6 6 5 5 5 5 5 5 5 5 5 4 4 5 5 5 5 4 4 4 4 5 5 5 5 6
4 4 5 8 11 13 14 14 14 13 15 9 7 6 7 7 6 6 7 7 6 6 6 6 6 6 6 6 5 5 5 5 5 4 4 4 4 4 4 5 5 5 5 5
3 1 4 9 10 13 11 11 11 14 11 5 6 8 8 7 7 8 7 7 7 7 7 7 7 7 6 6 5 5 5 5 5 4 4 4 5 5 5 5 5 5 5 5
2 2 8 2 1 6 9 11 12 11 9 7 8 8 8 7 7 7 7 7 7 7 7 7 7 6 5 5 5 5 5 5 4 4 4 4 4 4 4 4 4 4 5 5
3 5 7 4 3 4 6 8 9 10 10 8 5 7 6 4 4 5 7 7 7 7 7 7 6 5 4 5 4 4 4 5 4 4 4 4 4 5 4 4 4 4 5 5
4 5 6 1 2 1 3 6 3 6 7 5 3 5 3 2 5 6 6 6 5 5 6 5 5 4 4 4 4 4 5 5 4 4 4 4 5 5 4 4 4 4 4 5
6 6 7 0 2 4 5 3 2 3 4 4 5 5 5 5 6 5 5 5 5 5 4 5 4 4 4 4 4 4 4 4 4 4 4 4 4 4 4 4 4 4 4 4
6 7 6 4 5 5 3 3 2 3 3 4 4 4 5 5 5 5 5 5 5 4 4 4 3 3 4 4 4 4 4 4 4 3 3 3 4 3 3 3 3 3 4 4
7 5 1 3 4 2 2 3 3 4 3 3 3 4 4 4 4 5 5 5 4 4 4 4 3 3 4 4 3 4 3 3 3 3 3 3 3 3 3 3 3 3 3 3
5 6 4 4 4 4 3 4 4 3 3 3 4 4 4 4 4 4 5 4 4 4 4 4 4 3 4 4 3 3 3 3 3 3 3 3 3 3 3 3 3 3 3 3
6 6 5 5 5 5 4 3 2 3 3 3 3 4 4 4 4 4 4 4 4 4 5 5 4 4 3 3 3 3 3 3 3 3 3 3 3 3 4 4 4 4 3 3
6 4 4 4 2 3 3 3 3 3 3 3 3 3 4 3 4 4 4 4 4 5 5 5 4 4 4 3 3 3 3 3 3 3 3 3 3 3 4 5 5 6 6 6
5 3 4 4 4 3 3 3 3 3 3 3 3 3 3 3 3 4 4 4 4 5 5 5 5 5 5 4 3 3 3 3 3 3 3 3 3 3 3 3 3 4 5 5
5 3 4 3 3 2 2 2 2 2 2 2 2 2 2 3 3 4 4 5 5 5 5 5 5 5 5 4 3 3 3 4 3 3 3 3 3 3 3 3 3 3 3 4
5 5 4 3 2 1 1 1 1 1 2 2 2 2 2 3 3 4 4 4 4 4 5 5 5 5 5 4 3 3 3 3 3 3 3 3 3 3 3 3 3 3 3 3
3 3 3 3 3 2 1 1 2 2 2 3 2 3 3 3 3 4 4 4 4 4 5 5 5 5 5 4 4 3 3 4 4 3 2 2 2 2 2 3 3 3 3 3
3 3 4 4 4 4 4 3 4 3 3 3 3 3 2 2 3 3 4 4 4 4 4 5 6 5 4 4 4 3 3 3 4 3 2 2 2 2 2 3 3 3 3 3
5 5 5 5 5 4 4 4 3 3 3 3 2 2 2 2 3 4 4 4 4 4 4 5 5 5 4 4 4 3 3 3 3 3 2 2 2 2 2 2 3 3 3 3
4 4 4 4 4 4 4 3 3 3 2 2 2 2 3 3 3 3 3 3 4 4 5 5 7 5 4 5 4 3 3 3 3 3 2 3 2 2 2 2 2 3 3 3
3 2 2 2 2 2 3 2 2 2 2 2 1 2 2 3 3 3 3 3 3 3 5 5 5 4 4 4 5 3 3 3 3 3 2 2 2 2 2 3 3 3 3 3
2 2 2 1 1 1 1 2 2 2 2 2 2 2 3 3 2 2 2 3 3 4 5 5 4 3 3 4 5 3 3 3 3 3 2 2 2 2 2 3 3 3 3 3
2 2 2 1 1 1 1 1 1 2 1 1 1 1 2 2 3 3 3 3 4 5 4 3 3 4 5 5 3 3 3 3 3 2 2 2 2 2 2 3 3 3 3 2
2 2 2 2 1 1 1 1 1 1 2 2 2 2 2 2 2 2 3 3 3 5 4 3 5 6 6 4 3 3 3 3 2 2 2 2 2 2 3 3 3 3 3 2
1 1 1 1 1 1 1 1 1 1 1 2 2 2 2 2 2 2 3 4 6 6 4 5 6 7 6 3 3 2 2 2 2 2 2 2 2 2 3 3 3 3 2 3
1 1 1 2 2 1 1 1 1 1 1 1 1 2 2 2 2 3 3 3 5 5 3 5 6 7 4 3 3 3 3 3 3 3 3 2 3 3 3 3 3 3 2 2
1 2 2 2 2 1 1 1 1 1 1 1 2 2 2 2 2 2 2 3 4 4 4 3 4 4 3 3 3 3 3 3 3 3 3 3 3 3 3 3 3 3 2 2
1 1 1 1 1 1 1 1 1 1 1 1 2 2 2 2 2 2 2 2 3 3 3 3 3 3 3 3 3 3 3 3 3 3 3 3 3 3 3 3 3 2 2 2
Wind_Direction
266 268 237 238 229 217 222 232 243 254 256 265 277 284 288 288 290 292 297 302 303 301 304 307 305 303 300 298 294 287 279 272 270 272 270 266 262 260 259 259 258 257 258 257
252 250 245 252 242 228 231 237 245 261 265 268 278 279 285 288 284 283 291 298 300 299 300 300 300 298 297 294 292 285 274 272 274 271 269 268 261 259 258 258 255 253 254 255
244 288 266 252 231 220 225 228 228 242 252 278 280 279 284 285 276 275 282 287 290 293 294 294 293 293 291 292 290 283 275 274 276 273 269 270 265 257 259 259 256 254 257 258
243 224 238 249 143 216 230 240 232 246 261 263 270 284 282 272 264 273 282 285 289 290 291 293 291 289 289 289 283 280 278 275 274 270 266 270 269 261 260 260 259 259 262 265
216 246 268 264 204 201 221 253 232 241 259 272 290 292 267 241 260 280 286 288 291 292 291 291 289 287 285 280 283 283 282 280 278 269 264 265 267 268 263 259 259 259 261 265
210 239 250 261 118 174 203 258 209 238 263 272 277 272 285 321 302 296 293 293 297 299 295 293 293 285 276 278 282 285 289 286 280 270 266 267 270 272 265 257 258 264 265 268
221 241 263 298 140 169 219 295 351 261 264 252 248 273 306 310 305 303 303 303 303 299 293 293 291 278 274 279 282 291 292 287 279 274 273 273 273 270 265 260 263 264 270 275
201 224 245 138 158 208 286 344 305 279 269 258 267 290 295 300 307 311 312 312 310 305 302 301 294 274 275 281 289 293 289 285 283 283 281 274 271 269 265 262 264 267 269 277
212 231 3 178 221 274 306 290 291 287 277 261 268 280 292 302 306 307 310 314 317 312 309 311 307 283 280 291 294 290 287 286 287 288 286 281 276 273 270 264 262 266 269 276
251 256 258 247 253 269 276 281 287 282 273 263 264 273 285 294 301 306 311 315 316 314 311 314 316 303 290 299 297 289 288 290 289 287 288 283 277 270 269 266 264 262 263 271
248 268 283 250 246 261 271 279 288 295 287 269 264 273 279 287 295 302 308 313 313 312 313 316 319 318 313 306 297 290 292 290 286 279 280 281 279 277 274 269 267 267 268 268
239 240 242 266 279 261 250 264 269 279 292 293 276 276 287 292 298 303 309 314 317 317 317 318 322 323 324 317 301 291 288 289 283 281 282 281 285 295 289 277 283 276 276 273
259 273 264 278 279 255 251 264 274 271 270 281 288 288 293 299 302 308 312 318 320 319 318 320 326 330 330 324 309 295 293 293 291 288 288 290 291 295 306 310 295 288 285 287
247 247 255 254 257 262 265 277 286 289 285 282 288 301 305 305 306 310 314 318 319 319 321 325 330 331 330 327 317 303 297 296 293 290 288 287 286 290 294 299 304 306 301 294
237 236 245 258 261 266 267 249 276 301 308 313 306 298 297 299 302 308 313 319 320 321 326 330 330 330 332 329 323 317 309 301 298 296 293 288 285 286 287 288 290 296 303 306
247 239 227 229 241 251 249 234 249 268 281 289 293 299 300 299 300 305 314 320 319 321 324 324 325 331 333 328 323 318 314 312 307 300 297 295 287 283 285 286 289 291 296 302
206 225 225 235 244 248 243 242 242 249 257 264 280 299 306 305 309 313 318 320 315 313 318 321 324 330 331 326 321 316 316 317 315 306 301 297 290 290 293 294 294 295 297 302
233 238 230 227 232 242 253 254 250 250 252 260 278 285 284 286 295 305 314 320 321 322 326 325 326 329 330 327 319 314 311 311 312 311 308 304 299 294 293 293 298 300 305 312
232 234 234 233 229 227 235 246 251 249 253 247 253 267 279 284 289 299 310 316 319 324 330 330 331 333 332 330 326 312 310 311 313 313 312 310 308 305 301 301 304 305 307 311
233 232 234 238 231 217 227 241 243 247 246 237 249 270 286 295 302 305 305 302 309 317 318 322 324 327 329 327 325 315 314 314 314 315 317 313 309 309 309 309 309 309 311 313
234 227 223 227 251 257 237 226 224 237 245 232 234 255 277 295 302 297 296 303 319 323 321 323 328 329 327 322 315 313 315 315 315 315 317 317 307 306 308 308 306 305 308 310
228 219 219 219 229 279 295 250 229 233 240 249 259 267 286 301 307 298 283 288 311 321 322 319 324 328 328 325 323 326 324 320 316 313 310 308 305 303 304 304 301 300 301 300
227 217 215 216 226 260 295 269 240 235 239 248 252 257 270 282 283 286 298 305 312 317 318 314 320 325 331 331 325 320 320 318 313 310 306 304 301 300 301 302 302 303 304 304
220 214 213 205 192 204 257 299 303 282 266 265 261 261 267 282 287 278 296 306 313 314 311 315 323 329 332 329 321 315 313 314 313 308 307 306 303 300 297 298 301 304 306 308
205 194 186 190 207 233 255 273 296 298 298 292 291 283 272 272 278 293 303 305 312 319 316 319 326 330 329 321 319 314 311 312 312 308 305 305 305 304 301 300 302 304 306 306
203 211 221 232 239 244 236 226 247 273 288 297 304 305 305 303 300 301 301 305 306 312 316 315 317 321 319 316 315 314 313 315 317 316 311 307 304 303 302 304 305 303 302 301
188 194 204 237 244 236 232 229 240 255 260 269 287 296 306 309 309 311 312 312 313 312 312 314 317 317 317 317 317 317 316 315 313 310 308 306 305 304 303 301 302 301 301 300